[[{"header":{"parameterUnit":"m.s-1","parameterCategory":2,"la1":30.2991,"la2":30.254,"lo1":-89.0895,"lo2":-89.0444,"dy":0.0017,"dx":0.0017,"nx":28,"ny":28,"refTime":"2023-10-22T03:00:00:Z","depth":"0","parameterNumber":2,"parameterNumberName":"U-component_of_CURRENTS"},"data":[0,0,0,0,0,0,0,0,0,0,0,0,0,0,0,0,0,0,0,0,0,0,0,0,0,0,0,0,0,0,0,0,0,0,0,0,0,0,0,0,0,0,0,0,0,0,0,0,0,0,0,0,0,0,0,0,0,0,0.3046,0.3046,0,0.3073,0.3073,0.3073,0.306,0.306,0.3059,0.3059,0.3026,0.3026,0.3025,0,0,0,0,0,0,0,0,0,0,0,0,0,0.2951,0.2953,0.3046,0.3046,0.3047,0.3073,0.3073,0.3073,0.306,0.306,0.3059,0.3059,0.3026,0.3026,0.3025,0,0,0,0,0,0,0,0,0,0,0,0,0,0.2984,0.2953,0.3046,0.3046,0.3046,0.3073,0.3073,0.3073,0.306,0.306,0.3059,0.3058,0.3026,0.3026,0.3025,0.3033,0,0,0.3023,0.3022,0,0,0,0,0,0,0,0,0.2982,0.2987,0.3045,0.3046,0.3047,0.3065,0.3028,0.3058,0.306,0.3052,0.3059,0.3058,0.3036,0.3035,0.3038,0.3032,0.303,0.3023,0.3022,0.3022,0.3022,0,0,0,0,0,0,0,0.298,0.2985,0.3054,0.3046,0.3047,0.3034,0.3038,0.3033,0.3044,0.3053,0.3052,0.306,0.3035,0.3038,0.3037,0.303,0.3023,0.3022,0.3022,0.3021,0.3037,0.3038,0,0,0,0,0,0,0.2985,0.2984,0.3053,0.3055,0.3015,0.3037,0.3041,0.3057,0.3045,0.3044,0.3061,0.306,0.304,0.3037,0.3035,0.3082,0.3022,0.3021,0.3021,0.3036,0.3037,0.3038,0,0,0,0,0,0,0.2983,0.2991,0.3052,0.3021,0.3028,0.3039,0.3058,0.3058,0.3067,0.3053,0.305,0.307,0.3039,0.3036,0.3042,0.3079,0.3021,0.302,0.3035,0.3036,0.3037,0.3151,0,0,0,0,0,0,0.298,0.2991,0.3013,0.3022,0.3031,0.3085,0.3059,0.3059,0.3074,0.3073,0.306,0.3056,0.3039,0.3043,0.3041,0.3077,0.302,0.3034,0.3036,0.3037,0.3146,0.3156,0.3164,0,0,0,0,0,0.2977,0.3026,0.3014,0.3023,0.3058,0.3087,0.3091,0.3093,0.3076,0.3094,0.3078,0.3056,0.3052,0.3044,0.3041,0.3077,0.3033,0.3035,0.3037,0.3142,0.3154,0.3164,0,0,0,0,0,0,0.3027,0.303,0.3017,0.3072,0.3079,0.3086,0.3111,0.31,0.3103,0.3092,0.3071,0.3067,0.3085,0.306,0.3052,0.3083,0.3037,0.3039,0.3118,0.3129,0.3138,0.3227,0.3019,0,0,0,0,0,0.304,0.3058,0.3063,0.3107,0.3111,0.3105,0.3118,0.3109,0.311,0.3111,0.3101,0.3086,0.3091,0.3093,0.3085,0.3105,0.3187,0.3122,0.3132,0.314,0.3208,0.3359,0.3391,0.3044,0.3044,0.3044,0,0,0.3075,0.3077,0.3092,0.3115,0.3117,0.3161,0.3112,0.3131,0.3173,0.3106,0.3153,0.3118,0.3101,0.3127,0.3133,0.3112,0.3279,0.3142,0.315,0.3215,0.3365,0.34,0.3431,0.3045,0.3045,0.3045,0,0,0.3173,0.3149,0.3206,0.3206,0.3209,0.3201,0.3209,0.3207,0.321,0.3234,0.3201,0.3202,0.3193,0.3207,0.321,0.3265,0.332,0.3236,0.3364,0.3508,0.3541,0.357,0.3725,0.3767,0.3244,0.3244,0.3245,0,0.324,0.3292,0.3231,0.3284,0.3308,0.3227,0.3305,0.3294,0.3296,0.3324,0.3262,0.3294,0.3251,0.3334,0.3344,0.3295,0.3397,0.3325,0.353,0.356,0.3588,0.374,0.3785,0.325,0.325,0.3249,0.3248,0,0.3375,0.3411,0.3442,0.3475,0.3484,0.3525,0.3496,0.3502,0.347,0.3471,0.3518,0.3462,0.3502,0.3458,0.3421,0.358,0.3595,0.3526,0.3519,0.3632,0.3781,0.3827,0.3258,0.3256,0.3255,0.3253,0,0,0.3598,0.3554,0.358,0.3594,0.3584,0.3607,0.3657,0.3706,0.376,0.3719,0.3829,0.3789,0.3753,0.3757,0.3693,0.3789,0.4037,0.3757,0.3762,0.3945,0.4408,0.4362,0.4407,0.4021,0.4029,0.4035,0.4436,0,0.3758,0.3852,0.3807,0.3905,0.3943,0.3873,0.3931,0.3937,0.3926,0.399,0.3943,0.3991,0.3868,0.388,0.3968,0.4002,0.4163,0.3938,0.4244,0.4255,0.4228,0.4459,0.4206,0.4538,0.4481,0.4488,0.4494,0,0.3951,0.3972,0.4082,0.408,0.4101,0.4145,0.4204,0.424,0.4277,0.4274,0.4314,0.4269,0.4373,0.4242,0.4471,0.4342,0.4434,0.4461,0.4475,0.4442,0.4295,0.4412,0.4623,0.4436,0.4564,0.4558,0.4553,0,0.4112,0.4181,0.4257,0.4261,0.4253,0.4305,0.4317,0.4344,0.4365,0.4468,0.4497,0.4602,0.4633,0.4775,0.4781,0.4683,0.5052,0.4911,0.4988,0.4985,0.4838,0.4808,0.4937,0.5192,0.5191,0.519,0.5189,0,0.4284,0.4349,0.4328,0.4357,0.4438,0.4422,0.451,0.4529,0.4585,0.4621,0.465,0.47,0.4774,0.4915,0.4963,0.5132,0.5222,0.512,0.5123,0.4863,0.4832,0.471,0.4587,0.5205,0.5202,0.5199,0.5196,0,0.4386,0.4401,0.4453,0.4478,0.4489,0.4532,0.454,0.4584,0.4661,0.4724,0.4762,0.4849,0.5024,0.5118,0.5344,0.5346,0.5361,0.556,0.5253,0.5213,0.505,0.4941,0.5037,0.4905,0.575,0.5752,0.5753,0,0.4408,0.4456,0.449,0.4493,0.4488,0.4535,0.4542,0.4601,0.4626,0.477,0.4799,0.5002,0.5078,0.5415,0.5491,0.5702,0.5452,0.5591,0.5345,0.5117,0.4999,0.4788,0.4651,0.5205,0.5202,0.5199,0.5197,0,0.4408,0.4436,0.4451,0.4462,0.4477,0.4481,0.4509,0.4537,0.4613,0.4693,0.4805,0.4912,0.52,0.5257,0.5524,0.5584,0.5271,0.5547,0.5394,0.4707,0.4408,0.425,0.4871,0.5175,0.5177,0.5179,0.518,0.5181,0.4362,0.4363,0.4379,0.438,0.4391,0.4379,0.4351,0.4401,0.4444,0.452,0.471,0.4831,0.4962,0.5266,0.5308,0.5184,0.5195,0.5014,0.4953,0.4803,0.4511,0.5111,0.5335,0.5338,0.5341,0.5343,0.5345,0,0.4249,0.4266,0.4272,0.4253,0.4213,0.4263,0.4269,0.4223,0.422,0.4411,0.4516,0.4598,0.4653,0.4728,0.4711,0.4593,0.4387,0.4461,0.4063,0.3997,0.4622,0.4423,0.4354,0.4354,0.4354,0.4354,0.4354,0.4355,0.4186,0.4152,0.4165,0.4064,0.405,0.3954,0.3934,0.3912,0.4003,0.4025,0.4083,0.4183,0.4239,0.4251,0.4078,0.399,0.3684,0.3571,0.3608,0.3953,0.3995,0.4035,0.3821,0.3627,0.3626,0.2789,0.2782,0.2777]},{"header":{"parameterUnit":"m.s-1","parameterCategory":2,"la1":30.2991,"la2":30.254,"lo1":-89.0895,"lo2":-89.0444,"dy":0.0017,"dx":0.0017,"nx":28,"ny":28,"refTime":"2023-10-22T03:00:00:Z","depth":"0","parameterNumber":3,"parameterNumberName":"V-component_of_CURRENTS"},"data":[0,0,0,0,0,0,0,0,0,0,0,0,0,0,0,0,0,0,0,0,0,0,0,0,0,0,0,0,0,0,0,0,0,0,0,0,0,0,0,0,0,0,0,0,0,0,0,0,0,0,0,0,0,0,0,0,0,0,-0.0516,-0.0517,0,-0.0611,-0.0612,-0.0613,-0.0706,-0.0707,-0.0708,-0.0709,-0.08,-0.0801,-0.0803,0,0,0,0,0,0,0,0,0,0,0,0,0,-0.0463,-0.0464,-0.0516,-0.0517,-0.0518,-0.0611,-0.0612,-0.0614,-0.0706,-0.0707,-0.0708,-0.0709,-0.0799,-0.0801,-0.0803,0,0,0,0,0,0,0,0,0,0,0,0,0,-0.0517,-0.0464,-0.0516,-0.0573,-0.0579,-0.061,-0.0612,-0.0614,-0.0706,-0.0707,-0.0708,-0.071,-0.0798,-0.0801,-0.0803,-0.0788,0,0,-0.081,-0.0811,0,0,0,0,0,0,0,0,-0.0514,-0.0519,-0.0564,-0.0569,-0.0576,-0.0646,-0.0627,-0.0671,-0.0705,-0.066,-0.0709,-0.0711,-0.0745,-0.0752,-0.077,-0.0792,-0.0796,-0.081,-0.0811,-0.0812,-0.0813,0,0,0,0,0,0,0,-0.051,-0.0516,-0.0556,-0.0565,-0.0572,-0.0611,-0.062,-0.0636,-0.0695,-0.0664,-0.0671,-0.0677,-0.0749,-0.0768,-0.0773,-0.0797,-0.081,-0.0812,-0.0813,-0.0814,-0.0817,-0.0816,0,0,0,0,0,0,-0.0489,-0.0512,-0.0553,-0.0559,-0.0545,-0.061,-0.062,-0.0624,-0.0695,-0.0707,-0.0675,-0.068,-0.0763,-0.077,-0.0776,-0.0746,-0.0812,-0.0814,-0.0816,-0.0819,-0.0817,-0.0816,0,0,0,0,0,0,-0.0487,-0.0492,-0.0549,-0.0536,-0.0546,-0.0609,-0.0613,-0.0625,-0.0642,-0.0703,-0.0716,-0.0678,-0.0764,-0.0773,-0.0795,-0.0751,-0.0815,-0.0818,-0.082,-0.0818,-0.0816,-0.0697,0,0,0,0,0,0,-0.0486,-0.049,-0.0476,-0.0534,-0.0546,-0.0544,-0.0611,-0.0626,-0.0642,-0.065,-0.0709,-0.072,-0.0766,-0.0791,-0.0797,-0.0756,-0.0819,-0.0822,-0.0819,-0.0817,-0.0702,-0.0691,-0.0681,0,0,0,0,0,-0.0483,-0.0444,-0.0475,-0.0479,-0.0527,-0.0542,-0.055,-0.0603,-0.064,-0.0628,-0.0688,-0.0718,-0.078,-0.0792,-0.0799,-0.0757,-0.0823,-0.082,-0.0817,-0.0707,-0.0693,-0.0681,0,0,0,0,0,0,-0.0394,-0.0451,-0.0486,-0.0462,-0.0494,-0.0556,-0.0545,-0.0589,-0.0627,-0.0637,-0.0708,-0.0721,-0.0725,-0.0757,-0.0769,-0.0752,-0.0803,-0.0801,-0.0716,-0.0704,-0.0693,-0.0627,-0.0821,0,0,0,0,0,-0.0372,-0.0366,-0.0426,-0.0401,-0.0417,-0.0482,-0.0493,-0.0531,-0.0576,-0.0595,-0.0642,-0.0687,-0.0717,-0.0724,-0.0758,-0.0742,-0.0722,-0.0719,-0.0709,-0.0699,-0.0651,-0.06,-0.0578,-0.0806,-0.0806,-0.0806,0,0,-0.0327,-0.0356,-0.0351,-0.0383,-0.0416,-0.0414,-0.0492,-0.0496,-0.049,-0.0595,-0.0596,-0.0654,-0.0709,-0.0705,-0.0706,-0.0725,-0.0624,-0.0696,-0.0687,-0.0643,-0.0594,-0.0571,-0.0551,-0.0804,-0.0805,-0.0805,0,0,-0.0235,-0.0265,-0.024,-0.0263,-0.0303,-0.0343,-0.0339,-0.04,-0.0422,-0.0435,-0.0513,-0.0536,-0.0584,-0.0607,-0.0628,-0.057,-0.0578,-0.0591,-0.0471,-0.0422,-0.0402,-0.0384,-0.032,-0.0297,-0.0575,-0.0575,-0.0575,0,-0.018,-0.0167,-0.0227,-0.0214,-0.0218,-0.0305,-0.0277,-0.0305,-0.0362,-0.0356,-0.0413,-0.0462,-0.0524,-0.0498,-0.0495,-0.0539,-0.0511,-0.0517,-0.0404,-0.0386,-0.0369,-0.0308,-0.0284,-0.0569,-0.057,-0.057,-0.0571,0,-0.0093,-0.0079,-0.0059,-0.0081,-0.0086,-0.0072,-0.0127,-0.0128,-0.0174,-0.0203,-0.0195,-0.0281,-0.0295,-0.0333,-0.0403,-0.032,-0.0338,-0.0403,-0.0427,-0.0338,-0.0281,-0.0258,-0.056,-0.0562,-0.0564,-0.0566,0,0,0.0012,0.0002,0.0007,0.0017,-0.002,-0.0013,0.0014,0.0018,0.0056,-0.0,0.0062,-0.0019,-0.0058,-0.0082,-0.0166,-0.0139,-0.0028,-0.0212,-0.0213,-0.0129,0.0108,0.0071,0.0092,-0.0075,-0.0071,-0.0068,0.0105,0,0.0092,0.0145,0.0121,0.0183,0.0198,0.0151,0.0189,0.0188,0.0172,0.0213,0.0154,0.0166,0.0036,0.0032,0.0043,-0.0018,0.0037,-0.0066,-0.0005,-0.0002,-0.003,0.0119,0.0087,0.0236,0.0127,0.013,0.0133,0,0.0164,0.019,0.026,0.03,0.0307,0.0341,0.0393,0.0416,0.0448,0.0444,0.0461,0.0408,0.0435,0.0304,0.0327,0.0267,0.0223,0.0175,0.0179,0.013,0.0005,0.0125,0.028,0.0008,0.0168,0.0165,0.0162,0,0.0233,0.0286,0.0347,0.0354,0.0388,0.0435,0.0461,0.0496,0.0541,0.0608,0.0661,0.0666,0.0684,0.0644,0.0528,0.0447,0.0564,0.0434,0.038,0.0377,0.0359,0.0346,0.0279,0.0503,0.0503,0.0503,0.0502,0,0.0303,0.0354,0.0388,0.0419,0.0517,0.0517,0.0628,0.0655,0.0731,0.0825,0.0791,0.0871,0.0769,0.0789,0.0668,0.0625,0.0688,0.0471,0.0442,0.0396,0.0386,0.0149,0.0011,0.0509,0.0508,0.0506,0.0505,0,0.0356,0.0374,0.0451,0.0518,0.0545,0.0615,0.0715,0.0795,0.086,0.0993,0.103,0.1072,0.111,0.1017,0.0973,0.0818,0.0642,0.0725,0.0687,0.065,0.0295,0.0166,0.0188,0.0091,0.0714,0.0714,0.0715,0,0.0381,0.0423,0.0517,0.0567,0.0602,0.0699,0.0768,0.0847,0.0939,0.1108,0.119,0.1282,0.136,0.1309,0.1096,0.0977,0.072,0.0804,0.0627,0.0338,0.0174,0.0088,-0.0002,0.0659,0.0659,0.0659,0.0659,0,0.0429,0.0464,0.0525,0.0627,0.0711,0.0817,0.093,0.1025,0.1144,0.1282,0.1466,0.1559,0.1527,0.1424,0.1235,0.1067,0.061,0.0794,0.0518,0.0178,0.0068,-0.0063,0.0477,0.0658,0.0658,0.0658,0.0658,0.0658,0.0456,0.051,0.0583,0.0684,0.0786,0.0923,0.1028,0.1172,0.1353,0.1597,0.1666,0.1897,0.1675,0.1431,0.1152,0.0589,0.0621,0.0363,0.0257,0.0216,0.0047,0.0596,0.0704,0.0704,0.0704,0.0705,0.0705,0,0.047,0.0532,0.0627,0.0755,0.0875,0.0928,0.1121,0.1251,0.1478,0.1784,0.1979,0.2092,0.1717,0.1306,0.0597,0.0135,-0.0052,-0.0138,-0.0301,-0.0352,0.0159,0.0068,0.0016,0.0016,0.0017,0.0017,0.0017,0.0017,0.0479,0.0557,0.061,0.0791,0.0896,0.107,0.1191,0.1408,0.1665,0.2065,0.2337,0.252,0.2202,0.0799,-0.0216,-0.0459,-0.079,-0.0818,-0.0967,-0.0714,-0.0679,-0.0645,-0.0767,-0.0993,-0.0994,-0.1458,-0.1463,-0.1467]}],[{"header":{"parameterUnit":"m.s-1","parameterCategory":2,"la1":30.2991,"la2":30.254,"lo1":-89.0895,"lo2":-89.0444,"dy":0.0017,"dx":0.0017,"nx":28,"ny":28,"refTime":"2023-10-22T03:00:00:Z","depth":"2","parameterNumber":2,"parameterNumberName":"U-component_of_CURRENTS"},"data":[0,0,0,0,0,0,0,0,0,0,0,0,0,0,0,0,0,0,0,0,0,0,0,0,0,0,0,0,0,0,0,0,0,0,0,0,0,0,0,0,0,0,0,0,0,0,0,0,0,0,0,0,0,0,0,0,0,0,0.2561,0.2561,0,0.2654,0.2656,0.2658,0.2665,0.2663,0.266,0.2658,0.2735,0.2739,0.2744,0,0,0,0,0,0,0,0,0,0,0,0,0,0.2447,0.245,0.2561,0.2561,0.2561,0.2653,0.2656,0.2659,0.2665,0.2663,0.266,0.2657,0.2734,0.2739,0.2744,0,0,0,0,0,0,0,0,0,0,0,0,0,0.2527,0.2451,0.2561,0.2565,0.2565,0.2653,0.2656,0.2659,0.2666,0.2663,0.2659,0.2656,0.2732,0.2738,0.2745,0.2853,0,0,0.2764,0.2767,0,0,0,0,0,0,0,0,0.2522,0.2533,0.2565,0.2565,0.2565,0.2632,0.2643,0.2718,0.2667,0.2643,0.2658,0.2654,0.2693,0.2702,0.2748,0.2857,0.286,0.2764,0.2768,0.2771,0.2773,0,0,0,0,0,0,0,0.2517,0.2529,0.2612,0.2565,0.2565,0.258,0.2589,0.2659,0.2697,0.2645,0.2642,0.2631,0.2694,0.2742,0.2749,0.2861,0.2764,0.277,0.2774,0.2776,0.2998,0.3,0,0,0,0,0,0,0.2479,0.2524,0.2609,0.2614,0.2519,0.2584,0.2594,0.2626,0.2696,0.27,0.2633,0.263,0.2732,0.2742,0.2751,0.2869,0.2771,0.2777,0.2781,0.2996,0.2998,0.3001,0,0,0,0,0,0,0.2477,0.2487,0.2605,0.2556,0.257,0.2587,0.2624,0.2629,0.266,0.2685,0.2691,0.2654,0.273,0.2743,0.2771,0.2871,0.278,0.2785,0.2993,0.2997,0.3,0.3112,0,0,0,0,0,0,0.2474,0.2488,0.2523,0.2556,0.2571,0.2615,0.2626,0.2633,0.2652,0.2649,0.2706,0.271,0.2728,0.2761,0.2777,0.2878,0.279,0.2991,0.2995,0.2999,0.3106,0.3119,0.313,0,0,0,0,0,0.2471,0.2511,0.2525,0.2535,0.2613,0.2612,0.2624,0.2633,0.2655,0.2655,0.2688,0.2707,0.2799,0.2767,0.2786,0.2891,0.2989,0.2994,0.2998,0.3101,0.3116,0.313,0,0,0,0,0,0,0.2489,0.2516,0.2531,0.2583,0.2577,0.2606,0.2626,0.264,0.2681,0.2688,0.2723,0.273,0.2797,0.2815,0.278,0.2961,0.2905,0.2913,0.2977,0.2992,0.3004,0.2964,0.2796,0,0,0,0,0,0.2508,0.2523,0.255,0.2572,0.2591,0.262,0.2635,0.2633,0.2656,0.2673,0.2721,0.2779,0.2844,0.2882,0.2924,0.3028,0.3028,0.3108,0.312,0.313,0.3108,0.319,0.3208,0.3016,0.3016,0.3016,0,0,0.2508,0.2524,0.2532,0.2571,0.2594,0.2627,0.2624,0.2632,0.2668,0.2679,0.2769,0.2812,0.287,0.297,0.3009,0.2995,0.3188,0.3136,0.3145,0.3116,0.3197,0.3216,0.3233,0.3019,0.3019,0.3018,0,0,0.25,0.255,0.2569,0.2576,0.2587,0.2618,0.2616,0.2664,0.2701,0.2771,0.2802,0.2862,0.299,0.3038,0.3086,0.3185,0.3232,0.325,0.3312,0.3395,0.3411,0.3425,0.3462,0.3479,0.3279,0.3279,0.328,0,0.2501,0.2536,0.2564,0.2587,0.2594,0.2617,0.2641,0.2701,0.2744,0.2805,0.2792,0.2986,0.3017,0.3154,0.3193,0.3216,0.3266,0.3261,0.3412,0.3426,0.3439,0.3472,0.3489,0.3285,0.3285,0.3284,0.3284,0,0.2487,0.254,0.2547,0.2595,0.2621,0.2618,0.2691,0.2749,0.2816,0.289,0.302,0.3064,0.3178,0.3231,0.3251,0.3397,0.3405,0.3404,0.3376,0.3465,0.3495,0.351,0.3294,0.3292,0.329,0.3289,0,0,0.2447,0.2521,0.2532,0.2591,0.2615,0.2661,0.2729,0.2828,0.293,0.3009,0.3151,0.3251,0.3305,0.3354,0.3408,0.3479,0.3612,0.3505,0.3507,0.3541,0.3802,0.3681,0.3686,0.3682,0.3685,0.3688,0.3791,0,0.2426,0.2489,0.2514,0.2604,0.267,0.271,0.2783,0.2885,0.2991,0.3148,0.3238,0.339,0.3356,0.3451,0.3511,0.3595,0.3659,0.3582,0.3707,0.3708,0.3592,0.3701,0.3383,0.3438,0.3806,0.3808,0.381,0,0.242,0.2475,0.2534,0.2677,0.271,0.2767,0.2921,0.298,0.317,0.326,0.3399,0.3508,0.3642,0.3602,0.3738,0.3717,0.3759,0.3791,0.3797,0.3643,0.3616,0.3406,0.3452,0.3835,0.3833,0.3831,0.383,0,0.2418,0.2524,0.2577,0.2601,0.2732,0.2803,0.2886,0.3039,0.3136,0.3364,0.3493,0.364,0.3758,0.3823,0.3886,0.3862,0.4022,0.3992,0.3901,0.3892,0.3612,0.3572,0.4074,0.4074,0.4073,0.4073,0.4073,0,0.2394,0.2481,0.2608,0.2645,0.2771,0.2857,0.3,0.3099,0.3266,0.34,0.357,0.3688,0.3834,0.3954,0.396,0.3974,0.4081,0.391,0.3921,0.3641,0.3605,0.3928,0.391,0.4077,0.4076,0.4075,0.4075,0,0.2425,0.2445,0.2571,0.2721,0.2771,0.2887,0.3062,0.3159,0.3319,0.3496,0.3591,0.3797,0.3892,0.3995,0.4106,0.4067,0.4093,0.407,0.3709,0.3673,0.3883,0.387,0.3971,0.3968,0.3965,0.3963,0.3961,0,0.2455,0.2509,0.2646,0.2673,0.2748,0.291,0.2973,0.3157,0.3252,0.3515,0.359,0.3796,0.3848,0.3962,0.3916,0.391,0.4022,0.3668,0.3523,0.3878,0.3879,0.3869,0.386,0.3208,0.32,0.3193,0.3188,0,0.2533,0.2556,0.2611,0.2679,0.2756,0.2868,0.3007,0.3088,0.3266,0.3372,0.3464,0.3542,0.3662,0.3505,0.3577,0.3524,0.3636,0.3533,0.4048,0.3274,0.3164,0.3163,0.3177,0.313,0.3136,0.314,0.3144,0.3146,0.2562,0.2601,0.2602,0.2677,0.2734,0.2781,0.2823,0.2904,0.2964,0.3039,0.3192,0.3175,0.3256,0.3124,0.3051,0.303,0.3245,0.315,0.3168,0.3193,0.3077,0.2968,0.2874,0.2878,0.2882,0.2885,0.2888,0,0.2555,0.2547,0.2599,0.2609,0.2621,0.2707,0.2776,0.2712,0.2648,0.2732,0.2715,0.2513,0.2464,0.2575,0.243,0.2458,0.2416,0.2393,0.2316,0.2374,0.2426,0.2269,0.1853,0.185,0.1847,0.1845,0,0,0.2496,0.2469,0.249,0.2464,0.2493,0.2452,0.2453,0.2307,0.2295,0.2122,0.2098,0.2275,0.2465,0.21,0.2068,0.1944,0.2136,0.1868,0.2694,0.2657,0.2704,0.2859,0.2683,0,0,0,0,0]},{"header":{"parameterUnit":"m.s-1","parameterCategory":2,"la1":30.2991,"la2":30.254,"lo1":-89.0895,"lo2":-89.0444,"dy":0.0017,"dx":0.0017,"nx":28,"ny":28,"refTime":"2023-10-22T03:00:00:Z","depth":"2","parameterNumber":3,"parameterNumberName":"V-component_of_CURRENTS"},"data":[0,0,0,0,0,0,0,0,0,0,0,0,0,0,0,0,0,0,0,0,0,0,0,0,0,0,0,0,0,0,0,0,0,0,0,0,0,0,0,0,0,0,0,0,0,0,0,0,0,0,0,0,0,0,0,0,0,0,0.029,0.0289,0,0.0203,0.0202,0.0201,0.0146,0.0146,0.0146,0.0146,0.0017,0.0014,0.0011,0,0,0,0,0,0,0,0,0,0,0,0,0,0.0323,0.0323,0.029,0.0289,0.0289,0.0204,0.0202,0.0201,0.0146,0.0146,0.0146,0.0146,0.0018,0.0014,0.001,0,0,0,0,0,0,0,0,0,0,0,0,0,0.0278,0.0323,0.029,0.0253,0.0248,0.0204,0.0202,0.02,0.0146,0.0146,0.0146,0.0146,0.002,0.0015,0.001,-0.0017,0,0,-0.0005,-0.0007,0,0,0,0,0,0,0,0,0.0281,0.0277,0.0259,0.0255,0.025,0.0187,0.0167,0.0126,0.0146,0.0183,0.0146,0.0145,0.0072,0.0062,0.0044,-0.0023,-0.0028,-0.0006,-0.0009,-0.0011,-0.0012,0,0,0,0,0,0,0,0.0284,0.028,0.0254,0.0258,0.0253,0.021,0.0204,0.0158,0.0127,0.018,0.0176,0.017,0.0069,0.0049,0.0041,-0.003,-0.0006,-0.001,-0.0013,-0.0015,-0.0119,-0.0119,0,0,0,0,0,0,0.0304,0.0283,0.0257,0.0251,0.0268,0.0211,0.0204,0.0206,0.0128,0.0117,0.017,0.0167,0.0058,0.0047,0.0036,-0.0005,-0.0011,-0.0015,-0.0018,-0.0119,-0.0119,-0.0119,0,0,0,0,0,0,0.0305,0.0303,0.026,0.0266,0.0258,0.0211,0.0213,0.0204,0.0187,0.0122,0.0109,0.0162,0.0057,0.0043,0.0011,-0.001,-0.0018,-0.0022,-0.012,-0.0119,-0.0119,-0.0084,0,0,0,0,0,0,0.0306,0.0304,0.0305,0.0268,0.0259,0.0252,0.0214,0.0203,0.0184,0.018,0.0111,0.0099,0.0056,0.0019,0.0007,-0.0017,-0.0026,-0.012,-0.0119,-0.0119,-0.0085,-0.0082,-0.008,0,0,0,0,0,0.0308,0.0313,0.0306,0.0302,0.0265,0.0253,0.0244,0.0207,0.0184,0.0188,0.0143,0.0101,0.0012,0.0016,0.0001,-0.0025,-0.012,-0.012,-0.0119,-0.0086,-0.0083,-0.008,0,0,0,0,0,0,0.0313,0.0307,0.0298,0.0297,0.0286,0.0245,0.0234,0.0213,0.0179,0.0167,0.0107,0.0093,0.0055,0.002,0.0025,-0.0051,-0.0063,-0.0066,-0.0033,-0.003,-0.0028,0.0002,-0.003,0,0,0,0,0,0.0321,0.0334,0.0315,0.0316,0.031,0.0274,0.026,0.0241,0.0207,0.0191,0.0144,0.0091,0.0044,0.0014,-0.0027,-0.0068,-0.0084,-0.0094,-0.0091,-0.0089,-0.0073,-0.0107,-0.0106,-0.0117,-0.0117,-0.0117,0,0,0.0315,0.0321,0.0321,0.032,0.0301,0.0297,0.0265,0.0252,0.0246,0.0182,0.0153,0.0102,0.0039,-0.0004,-0.0026,-0.0038,-0.0093,-0.0088,-0.0086,-0.0071,-0.0106,-0.0105,-0.0104,-0.0117,-0.0117,-0.0117,0,0,0.0327,0.0325,0.0341,0.0342,0.0334,0.0312,0.0316,0.0282,0.0265,0.0238,0.0185,0.014,0.0064,0.0018,-0.0017,-0.002,-0.0072,-0.0052,-0.0027,-0.006,-0.006,-0.0059,-0.0074,-0.0076,-0.0058,-0.0058,-0.0058,0,0.0321,0.0354,0.0341,0.0361,0.0363,0.0326,0.0337,0.0312,0.0273,0.0261,0.0239,0.0132,0.0078,0.0021,0.0013,-0.0016,-0.0039,-0.0037,-0.0057,-0.0057,-0.0057,-0.0073,-0.0074,-0.0056,-0.0057,-0.0057,-0.0057,0,0.0359,0.0377,0.0387,0.0405,0.0395,0.0409,0.0377,0.037,0.0337,0.0302,0.0253,0.0183,0.0123,0.0083,0.004,-0.0001,-0.0017,-0.0044,-0.0063,-0.0053,-0.0071,-0.0073,-0.0054,-0.0055,-0.0055,-0.0056,0,0,0.0369,0.041,0.0413,0.0431,0.0432,0.0424,0.0423,0.0409,0.0409,0.0346,0.0334,0.0234,0.0188,0.0148,0.008,0.0038,0.0009,-0.0007,-0.001,-0.0018,-0.0059,-0.0089,-0.0095,-0.0033,-0.0033,-0.0033,-0.0069,0,0.041,0.0471,0.0471,0.0495,0.0516,0.0495,0.0504,0.0475,0.0441,0.0418,0.0332,0.0286,0.0212,0.0178,0.0124,0.0051,0.0003,0.0022,-0.007,-0.0071,-0.0097,-0.0098,-0.0088,-0.0121,-0.0072,-0.0072,-0.0072,0,0.0452,0.0494,0.0544,0.0569,0.0573,0.0565,0.0572,0.0579,0.0536,0.051,0.0442,0.0373,0.0301,0.0237,0.0121,0.0132,0.0041,-0.0023,-0.0027,-0.0065,-0.0106,-0.0125,-0.0128,-0.0077,-0.0076,-0.0076,-0.0076,0,0.0485,0.0533,0.0583,0.0595,0.0616,0.0616,0.0616,0.0594,0.0623,0.056,0.0575,0.0453,0.0427,0.0295,0.0168,0.0136,0.005,-0.0008,-0.0122,-0.0124,-0.0135,-0.0138,-0.0099,-0.0099,-0.0099,-0.0099,-0.0099,0,0.0547,0.0567,0.0598,0.0621,0.0664,0.065,0.068,0.0674,0.0685,0.0755,0.0621,0.0665,0.044,0.0366,0.0211,0.0061,0.0085,-0.0107,-0.0137,-0.0122,-0.0124,-0.0102,-0.0102,-0.0101,-0.01,-0.01,-0.01,0,0.0553,0.0599,0.064,0.0672,0.068,0.0699,0.0737,0.0788,0.0788,0.0884,0.088,0.0821,0.0719,0.05,0.0304,0.0147,-0.0015,-0.0083,-0.0042,-0.0069,-0.0183,-0.018,-0.0224,-0.0226,-0.0227,-0.0228,-0.0229,0,0.0556,0.0593,0.0658,0.0714,0.072,0.0754,0.0817,0.0829,0.0915,0.1026,0.1111,0.1016,0.0989,0.0672,0.0337,0.0029,-0.0003,-0.0142,-0.0217,-0.0171,-0.0197,-0.0192,-0.0188,-0.0213,-0.0214,-0.0214,-0.0215,0,0.056,0.0592,0.0645,0.0765,0.083,0.092,0.1008,0.1104,0.1206,0.1292,0.1442,0.1417,0.1086,0.0755,0.0298,0.01,-0.0103,-0.0164,-0.0115,-0.0187,-0.0166,-0.0189,-0.0184,-0.0219,-0.0219,-0.0219,-0.0218,-0.0218,0.0558,0.0612,0.0725,0.0831,0.0934,0.1117,0.123,0.1364,0.1538,0.1689,0.1659,0.1589,0.1201,0.0564,0.0236,-0.0141,-0.015,-0.028,-0.0276,-0.0272,-0.0269,-0.0251,-0.0319,-0.0319,-0.0319,-0.0319,-0.0319,0,0.0605,0.0695,0.0798,0.0973,0.1127,0.1159,0.1401,0.1536,0.178,0.1804,0.1831,0.1442,0.1054,0.0632,0.0056,-0.027,-0.0292,-0.0352,-0.0311,-0.0305,-0.0301,-0.0297,-0.0356,-0.0356,-0.0357,-0.0357,0,0,0.0656,0.0791,0.0864,0.1132,0.1253,0.149,0.1658,0.1834,0.1906,0.1909,0.1794,0.1575,0.1113,0.0694,0.0251,-0.0044,-0.0091,-0.01,-0.0044,0.0061,0.0071,-0.0242,-0.0228,0,0,0,0,0]}],[{"header":{"parameterUnit":"m.s-1","parameterCategory":2,"la1":30.2991,"la2":30.254,"lo1":-89.0895,"lo2":-89.0444,"dy":0.0017,"dx":0.0017,"nx":28,"ny":28,"refTime":"2023-10-22T03:00:00:Z","depth":"4","parameterNumber":2,"parameterNumberName":"U-component_of_CURRENTS"},"data":[0,0,0,0,0,0,0,0,0,0,0,0,0,0,0,0,0,0,0,0,0,0,0,0,0,0,0,0,0,0,0,0,0,0,0,0,0,0,0,0,0,0,0,0,0,0,0,0,0,0,0,0,0,0,0,0,0,0,0.1032,0.1034,0,0.1139,0.1139,0.114,0.1192,0.1192,0.1193,0.1193,0.127,0.1271,0.1272,0,0,0,0,0,0,0,0,0,0,0,0,0,0.0959,0.0959,0.1032,0.1034,0.1036,0.1138,0.1139,0.114,0.1192,0.1192,0.1193,0.1194,0.1269,0.1271,0.1273,0,0,0,0,0,0,0,0,0,0,0,0,0,0.1014,0.0959,0.1032,0.1079,0.1085,0.1138,0.1139,0.114,0.1191,0.1192,0.1193,0.1194,0.1269,0.1271,0.1273,0.1268,0,0,0.128,0.1281,0,0,0,0,0,0,0,0,0.101,0.1015,0.107,0.1076,0.1083,0.1159,0.1142,0.1184,0.1191,0.1144,0.1193,0.1195,0.1234,0.1239,0.1247,0.1272,0.1275,0.128,0.1281,0.1282,0.1283,0,0,0,0,0,0,0,0.1006,0.1012,0.1067,0.1072,0.108,0.1125,0.1132,0.115,0.1176,0.1148,0.1154,0.1176,0.1236,0.1245,0.125,0.1276,0.128,0.1282,0.1283,0.1284,0.142,0.1422,0,0,0,0,0,0,0.1001,0.1007,0.1064,0.1071,0.1056,0.1126,0.1133,0.1128,0.1177,0.1188,0.1175,0.1178,0.1241,0.1247,0.1252,0.134,0.1282,0.1284,0.1285,0.1417,0.142,0.1423,0,0,0,0,0,0,0.0999,0.1004,0.106,0.1049,0.106,0.1126,0.1119,0.113,0.1175,0.1199,0.1208,0.1215,0.1242,0.1249,0.1304,0.134,0.1285,0.1287,0.1415,0.1418,0.1422,0.1457,0,0,0,0,0,0,0.0995,0.1001,0.1013,0.1048,0.1061,0.1116,0.112,0.1131,0.1189,0.1194,0.1236,0.1242,0.1243,0.1301,0.1307,0.1342,0.1289,0.1412,0.1416,0.142,0.1453,0.1461,0.1468,0,0,0,0,0,0.0992,0.1004,0.1011,0.102,0.1067,0.1118,0.1129,0.1174,0.119,0.1216,0.1249,0.1242,0.1333,0.1305,0.131,0.1347,0.141,0.1415,0.142,0.1449,0.1459,0.1468,0,0,0,0,0,0,0.0982,0.1012,0.1021,0.1042,0.1088,0.113,0.1164,0.1193,0.1239,0.1255,0.1265,0.1274,0.1344,0.1342,0.1311,0.1403,0.1373,0.138,0.1393,0.1403,0.141,0.1423,0.1291,0,0,0,0,0,0.0982,0.1006,0.1036,0.1066,0.1078,0.1124,0.1158,0.1194,0.1235,0.1258,0.1284,0.132,0.1364,0.138,0.1418,0.1454,0.1462,0.1486,0.1494,0.15,0.1517,0.1564,0.1577,0.144,0.144,0.144,0,0,0.0991,0.1015,0.103,0.1068,0.1098,0.1126,0.1146,0.1209,0.124,0.1258,0.1309,0.1357,0.1386,0.144,0.1469,0.1442,0.1542,0.1507,0.1511,0.1525,0.1571,0.1584,0.1596,0.1443,0.1443,0.1442,0,0,0.1013,0.1031,0.1047,0.1082,0.1144,0.1168,0.1192,0.1245,0.1271,0.1331,0.1361,0.1433,0.1476,0.151,0.1529,0.1602,0.1593,0.1617,0.1648,0.1694,0.1705,0.1715,0.1725,0.1736,0.1605,0.1605,0.1605,0,0.1018,0.1039,0.1068,0.1092,0.113,0.1183,0.1213,0.1242,0.1316,0.135,0.1357,0.1487,0.1509,0.1586,0.1615,0.1619,0.1633,0.1603,0.1702,0.1712,0.1722,0.173,0.1741,0.1607,0.1607,0.1606,0.1606,0,0.1049,0.1069,0.1087,0.1122,0.1166,0.1215,0.1251,0.1304,0.135,0.1389,0.1495,0.1545,0.1628,0.1644,0.1649,0.174,0.1724,0.1715,0.167,0.1737,0.1742,0.1753,0.161,0.1609,0.1609,0.1608,0,0,0.1025,0.109,0.1094,0.1116,0.1192,0.1227,0.1283,0.1347,0.1404,0.1476,0.1551,0.1641,0.1702,0.1732,0.1763,0.1794,0.1865,0.1785,0.1786,0.1782,0.1949,0.1838,0.1839,0.1873,0.1876,0.1878,0.1917,0,0.1032,0.1073,0.1116,0.1168,0.1183,0.1259,0.1308,0.1387,0.1457,0.1538,0.161,0.1705,0.1719,0.1787,0.1826,0.1881,0.19,0.1854,0.1898,0.1899,0.1782,0.1851,0.1887,0.1925,0.1928,0.193,0.1931,0,0.1024,0.106,0.1108,0.1182,0.1198,0.1254,0.1369,0.1429,0.1547,0.1609,0.1725,0.1786,0.1893,0.1875,0.1989,0.1964,0.1966,0.1975,0.1976,0.1873,0.181,0.1853,0.1951,0.1949,0.1948,0.1946,0.1945,0,0.0971,0.104,0.1085,0.1115,0.1215,0.1272,0.1342,0.1466,0.1534,0.1679,0.1764,0.188,0.1975,0.2012,0.2067,0.2038,0.2154,0.2107,0.1997,0.1988,0.2056,0.2045,0.2156,0.2156,0.2156,0.2156,0.2156,0,0.0936,0.0966,0.1074,0.1096,0.1175,0.1263,0.137,0.1459,0.1604,0.1694,0.1818,0.1902,0.202,0.2098,0.2099,0.2103,0.2189,0.2022,0.2003,0.2067,0.2058,0.2062,0.205,0.2157,0.2157,0.2157,0.2156,0,0.0843,0.0925,0.0973,0.1093,0.1147,0.1207,0.1375,0.145,0.161,0.1739,0.1796,0.196,0.2065,0.2145,0.2215,0.2152,0.2152,0.2116,0.2188,0.2169,0.1934,0.1924,0.1984,0.198,0.1978,0.1975,0.1973,0,0.0791,0.0811,0.0944,0.1007,0.1071,0.1187,0.127,0.1436,0.1521,0.1747,0.1791,0.1958,0.2044,0.2074,0.2143,0.2149,0.2113,0.2089,0.2,0.1947,0.1923,0.1918,0.1912,0.1969,0.1968,0.1967,0.1967,0,0.0691,0.0755,0.0811,0.0919,0.1024,0.1112,0.1244,0.13,0.1497,0.1651,0.1765,0.1829,0.1939,0.1994,0.2041,0.2023,0.2099,0.2059,0.2062,0.1978,0.193,0.1907,0.1905,0.1957,0.1958,0.1959,0.196,0,0.0634,0.0645,0.0738,0.0838,0.0946,0.1013,0.1096,0.1216,0.1325,0.1584,0.1603,0.1775,0.1918,0.1927,0.1953,0.1963,0.1905,0.1817,0.1832,0.1843,0.178,0.1697,0.1653,0,0,0,0,0,0.0557,0.0583,0.0655,0.0761,0.0846,0.0912,0.1068,0.1162,0.1355,0.1402,0.151,0.1601,0.1681,0.1752,0.173,0.185,0.189,0.1812,0.179,0.1904,0.1915,0.1854,0,0,0,0,0,0,0.0532,0.0576,0.0618,0.0668,0.0717,0.0801,0.0895,0.103,0.1075,0.1278,0.1337,0.1483,0.1584,0.1679,0.1691,0.1712,0.1661,0.1915,0.191,0.1897,0.1907,0.1916,0.1858,0,0,0,0,0]},{"header":{"parameterUnit":"m.s-1","parameterCategory":2,"la1":30.2991,"la2":30.254,"lo1":-89.0895,"lo2":-89.0444,"dy":0.0017,"dx":0.0017,"nx":28,"ny":28,"refTime":"2023-10-22T03:00:00:Z","depth":"4","parameterNumber":3,"parameterNumberName":"V-component_of_CURRENTS"},"data":[0,0,0,0,0,0,0,0,0,0,0,0,0,0,0,0,0,0,0,0,0,0,0,0,0,0,0,0,0,0,0,0,0,0,0,0,0,0,0,0,0,0,0,0,0,0,0,0,0,0,0,0,0,0,0,0,0,0,0.0361,0.036,0,0.033,0.033,0.033,0.0325,0.0325,0.0326,0.0326,0.0264,0.0262,0.026,0,0,0,0,0,0,0,0,0,0,0,0,0,0.0368,0.0369,0.0361,0.036,0.036,0.033,0.033,0.033,0.0325,0.0325,0.0326,0.0326,0.0264,0.0262,0.026,0,0,0,0,0,0,0,0,0,0,0,0,0,0.0356,0.0369,0.0361,0.0353,0.0352,0.033,0.033,0.033,0.0325,0.0325,0.0326,0.0326,0.0265,0.0262,0.026,0.0239,0,0,0.0252,0.025,0,0,0,0,0,0,0,0,0.0356,0.0356,0.0355,0.0354,0.0352,0.0331,0.031,0.0297,0.0325,0.0337,0.0326,0.0326,0.0282,0.0278,0.0274,0.0236,0.0233,0.0251,0.025,0.0249,0.0248,0,0,0,0,0,0,0,0.0357,0.0357,0.035,0.0354,0.0353,0.0335,0.0334,0.0307,0.0309,0.0336,0.0335,0.0329,0.0281,0.0277,0.0273,0.0232,0.0251,0.0249,0.0247,0.0246,0.0181,0.0181,0,0,0,0,0,0,0.0361,0.0358,0.0351,0.0349,0.0353,0.0335,0.0333,0.0338,0.031,0.0306,0.0329,0.0329,0.0281,0.0276,0.027,0.0257,0.0249,0.0246,0.0245,0.0181,0.0181,0.0181,0,0,0,0,0,0,0.0361,0.0361,0.0352,0.0351,0.0348,0.0334,0.034,0.0338,0.0338,0.0305,0.0301,0.0332,0.0281,0.0274,0.0248,0.0254,0.0245,0.0242,0.0182,0.0181,0.0181,0.0221,0,0,0,0,0,0,0.0362,0.0362,0.0374,0.0352,0.0349,0.0341,0.0339,0.0337,0.0333,0.0333,0.0306,0.03,0.0281,0.0252,0.0245,0.025,0.024,0.0182,0.0182,0.0181,0.022,0.0222,0.0224,0,0,0,0,0,0.0362,0.037,0.0375,0.0375,0.0364,0.0341,0.0338,0.0329,0.0333,0.0331,0.0313,0.0301,0.0246,0.0249,0.0241,0.0246,0.0182,0.0182,0.0181,0.0219,0.0222,0.0224,0,0,0,0,0,0,0.0375,0.0369,0.0375,0.0381,0.0366,0.034,0.034,0.0333,0.0318,0.0322,0.0295,0.0287,0.0269,0.0248,0.0252,0.0226,0.0214,0.0212,0.0245,0.0247,0.025,0.0258,0.0238,0,0,0,0,0,0.0386,0.0393,0.0378,0.0382,0.0379,0.0363,0.0357,0.0349,0.0328,0.0324,0.0305,0.0283,0.0261,0.0247,0.0225,0.0205,0.0162,0.0203,0.0206,0.0208,0.0209,0.0139,0.0135,0.018,0.018,0.018,0,0,0.0385,0.0388,0.0388,0.0385,0.0378,0.0376,0.0361,0.035,0.0351,0.0317,0.0314,0.029,0.0257,0.024,0.023,0.0223,0.0172,0.0207,0.0209,0.0209,0.0138,0.0133,0.0129,0.018,0.018,0.018,0,0,0.039,0.0398,0.0409,0.0404,0.0398,0.0385,0.0384,0.0366,0.0364,0.0349,0.033,0.0305,0.0275,0.0251,0.0235,0.0232,0.0188,0.023,0.0246,0.0178,0.0174,0.0169,0.0109,0.0099,0.023,0.023,0.023,0,0.0396,0.0417,0.0404,0.0416,0.0419,0.0393,0.0403,0.039,0.0364,0.0363,0.0354,0.0305,0.028,0.0251,0.0254,0.0238,0.0192,0.0241,0.0181,0.0175,0.017,0.0109,0.0097,0.0231,0.0231,0.0231,0.0231,0,0.0408,0.0433,0.0436,0.0451,0.0443,0.0447,0.0428,0.0423,0.0416,0.04,0.0376,0.0332,0.0304,0.0291,0.0273,0.023,0.0208,0.0193,0.0175,0.0168,0.0104,0.0091,0.0234,0.0234,0.0233,0.0232,0,0,0.0416,0.0445,0.0451,0.0479,0.0471,0.0469,0.0465,0.0458,0.0464,0.0426,0.0418,0.0375,0.035,0.0329,0.0295,0.0236,0.0162,0.0204,0.0199,0.0146,0.0009,0.0016,0.0002,0.0132,0.013,0.0128,-0.002,0,0.0443,0.049,0.0485,0.0522,0.0547,0.0528,0.0529,0.0513,0.0493,0.0474,0.0415,0.0396,0.0364,0.0353,0.0285,0.0194,0.0129,0.0203,0.0022,0.0017,0.0026,-0.0012,0.0122,-0.003,-0.0033,-0.0035,-0.0037,0,0.047,0.0504,0.0555,0.0591,0.0599,0.061,0.0619,0.0615,0.057,0.0553,0.0504,0.0454,0.0372,0.0344,0.017,0.0216,0.0121,0.0041,0.0033,0.0018,-0.0,-0.0023,-0.0061,-0.0059,-0.0057,-0.0056,-0.0054,0,0.0508,0.0555,0.0608,0.062,0.0645,0.0667,0.0674,0.065,0.0656,0.0603,0.0589,0.048,0.0429,0.0286,0.0131,0.0144,-0.0075,-0.0079,-0.0168,-0.0168,-0.0146,-0.014,-0.0209,-0.0209,-0.0209,-0.0208,-0.0208,0,0.0553,0.0596,0.0642,0.0675,0.0732,0.0727,0.0773,0.0756,0.0734,0.0731,0.0641,0.0593,0.041,0.0268,0.0124,-0.0066,-0.0086,-0.0176,-0.0211,-0.0126,-0.0115,-0.0156,-0.0148,-0.0214,-0.0213,-0.0212,-0.0211,0,0.0588,0.0621,0.0686,0.0738,0.0759,0.0801,0.0847,0.0867,0.0843,0.0827,0.0812,0.0666,0.0475,0.0285,0.0039,-0.0062,-0.0248,-0.0308,-0.0206,-0.0231,-0.0294,-0.0283,-0.0424,-0.0425,-0.0426,-0.0427,-0.0427,0,0.0612,0.065,0.0733,0.0774,0.0808,0.0874,0.0913,0.0922,0.0934,0.0862,0.0841,0.0673,0.0555,0.0208,0.0006,-0.0277,-0.0303,-0.0388,-0.0338,-0.0299,-0.032,-0.0306,-0.0293,-0.0429,-0.0429,-0.0429,-0.043,0,0.064,0.0672,0.0728,0.0814,0.0879,0.0945,0.0998,0.101,0.1,0.0988,0.0858,0.0681,0.046,0.0198,-0.0017,-0.0218,-0.0328,-0.0398,-0.0397,-0.0351,-0.0307,-0.0323,-0.0309,-0.0433,-0.0432,-0.0432,-0.0432,0,0.0657,0.0695,0.0762,0.0838,0.0917,0.0969,0.1008,0.1008,0.1016,0.0942,0.0889,0.0658,0.0527,0.0225,0.0016,-0.0172,-0.0209,-0.0243,-0.025,-0.0249,-0.0145,-0.006,-0.0152,0,0,0,0,0,0.065,0.0691,0.0767,0.0848,0.0925,0.0971,0.1031,0.1056,0.1054,0.0975,0.0938,0.0732,0.0415,0.026,0.0072,-0.0005,-0.0244,-0.0229,-0.0287,-0.0451,-0.0447,-0.0353,0,0,0,0,0,0,0.0649,0.0716,0.0761,0.0836,0.0887,0.097,0.1013,0.1019,0.0971,0.094,0.0764,0.0702,0.0381,0.0519,0.007,0.0011,-0.0045,-0.0374,-0.0377,-0.0453,-0.045,-0.0447,-0.0349,0,0,0,0,0]}]]